Other Public Products
Issued by NWS Grand Forks, ND

Home | Current Version | Previous Version | Graphics & Text | Print | Product List | Glossary On
Versions: 1 2 3 4 5 6 7 8 9 10 11 12 13 14 15 16 17 18 19 20 21 22 23 24 25 26 27 28 29 30 31 32 33 34 35 36 37 38 39 40 41 42 43 44 45 46 47 48 49 50
000
FPUS83 KFGF 270331
OPUFGF
PRAIRIE TO PINES WEATHER ROUNDUP
NATIONAL WEATHER SERVICE EASTERN NORTH DAKOTA/GRAND FORKS ND
900 PM CST WED NOV 26 2014

 **SATELLITE DATA USED TO AUGMENT SKY COVER AT AUTOMATED STATIONS**
 *****  WEATHER ACROSS EASTERN NORTH DAKOTA  *****

CITY           SKY/WX    TMP DP  RH WIND       PRES   REMARKS
GRAND FORKS    PTCLDY   -11 -17  75 NW5       30.55R WCI -23
GRAND FORKS AF PTCLDY   -12 -17  78 NW3       30.54R
GRAND CITY NWS   N/A     -8 N/A N/A N5          N/A  WCI -19
BUXTON           N/A     -7 -10  87 NW5         N/A  WCI -19
DEVILS LAKE    PTCLDY    -9 -22  54 CALM      30.45S
FARGO          PTCLDY    -8 -14  74 N7        30.53S WCI -23
WAHPETON ARPT  PTCLDY     0  -8  71 N13       30.52R WCI -18
$$

 *****  WEATHER ACROSS CENTRAL AND WESTERN NORTH DAKOTA  *****

CITY           SKY/WX    TMP DP  RH WIND       PRES   REMARKS
JAMESTOWN      MOCLDY   -14 -17  87 W5        30.47R WCI -26
BISMARCK       MOCLDY    -5 -10  79 NE8       30.46S WCI -20
MINOT          CLOUDY   -12 -16  82 SW9       30.44S WCI -30
MINOT AFB      CLOUDY   -25 -30  78 W5        30.45S WCI -39
GARRISON         N/A     -7 -21  51 N3        30.43R
WILLISTON      CLOUDY     8   3  80 CALM      30.38S
DICKINSON      MOCLDY    10   7  87 SE5       30.31S WCI   2
HETTINGER      CLOUDY    12   9  87 SE6       30.33R WCI   3
$$

 *****  OTHER OBSERVATIONS NORTHEAST NORTH DAKOTA  *****

CITY           SKY/WX    TMP DP  RH WIND       PRES   REMARKS
WALHALLA         N/A    -13 -18  77 CALM      30.54R
LANGDON        FAIR     -13 -18  77 SW6       30.44S WCI -27
CAVALIER       FAIR     -13 -18  77 CALM      30.54R
GRAFTON        FAIR      -4 -11  71 NW5       30.54S WCI -15
CANDO          FAIR     N/A N/A N/A W5        30.47S
FORT TOTTEN      N/A     -8 -14  74 CALM      29.95
ROLLA          FAIR     N/A N/A N/A CALM      30.42F
RUGBY          FAIR      -9 -13  84 SW7       30.47R WCI -24
 ***** THE ABOVE OBSERVATIONS ARE NON NWS ARE NOT QUALITY
        CONTROLLED AND MAY MIS-REPORT RAIN FOR SNOW...
$$

 *****  OTHER OBSERVATIONS SOUTHEAST NORTH DAKOTA *****

CITY           SKY/WX    TMP DP  RH WIND       PRES   REMARKS
COOPERSTOWN    NOT AVBL
VALLEY CITY    FAIR      -9 -13  84 NW8       30.47S WCI -26
OAKES            N/A     -8 -11  84 NW6       30.49S WCI -21
GWINNER        CLEAR     -6 -13  71 NW5       30.50S WCI -17
SHEYENNE NWR     N/A     -9 -15  75 CALM      29.95S
BUFFALO        NOT AVBL
WYNDMERE         N/A     -6 -11  77 NW3         N/A
 ***** THE ABOVE OBSERVATIONS ARE NON NWS ARE NOT QUALITY
       CONTROLLED AND MAY MIS-REPORT RAIN FOR SNOW...
$$

  *****  WEATHER ACROSS NORTHERN MINNESOTA  *****

CITY           SKY/WX    TMP DP  RH WIND       PRES   REMARKS
FLAG ISLAND    CLEAR     -9 -15  77 NW9       30.46R WCI -27
WARROAD        PTCLDY    -9 -15  77 W5        30.48R WCI -21
ROSEAU         PTCLDY    -9 -15  77 NW5       30.50R WCI -21
HALLOCK        PTCLDY    -8 -15  71 N5        30.52F WCI -19
THF RVR FALLS  CLEAR     -6  -9  84 N8        30.48S WCI -21
HALSTAD          N/A     -9 -13  81 NW2         N/A
FOSSTON        CLEAR    -11 -17  77 NW7       30.47S WCI -26
BAUDETTE       CLEAR     -6 -11  79 NW7       30.44R WCI -20
WASKISH        CLEAR     -6  -9  84 CALM      30.43S
CROOKSTON      CLEAR     -8 -11  84 N3        30.54R
$$
  *****  WEATHER ACROSS CENTRAL AND WEST MINNESOTA  *****

CITY           SKY/WX    TMP DP  RH WIND       PRES   REMARKS
BEMIDJI        CLEAR    -10 -14  80 NW6       30.42R WCI -23
PARK RAPIDS    CLEAR     -6 -11  79 NW8       30.40S WCI -21
WADENA         CLEAR     -4  -9  77 NW6       30.42R WCI -16
DETROIT LAKES  CLEAR     -6  -9  84 NW6       30.46S WCI -18
MOORHEAD       PTCLDY    -6  -9  84 N7        30.52S WCI -20
FERGUS FALLS   CLEAR     -2  -9  71 N10       30.51S WCI -19
ELBOW LAKE     FAIR      -3  -7  83 N12       30.45S WCI -21
MORRIS MN      CLEAR      0  -8  71 NW16      30.45S WCI -21
STAPLES        CLEAR     -2  -9  71 NW9       30.41R WCI -18
WHEATON        CLEAR     -2  -8  78 NW8       30.52S WCI -17
$$
  *****  WEATHER ELSEWHERE ACROSS MINNESOTA  *****

CITY           SKY/WX    TMP DP  RH WIND       PRES   REMARKS
DULUTH         CLEAR      3  -5  69 NW9       30.29S WCI -12
INTRNTL FALLS  CLEAR     -7 -11  83 NW6       30.42R WCI -20
ELY            CLEAR     -2  -8  78 NW3       30.33R
CLOQUET        FAIR       3  -6  66 NW12      30.33R WCI -13
BRAINERD       CLEAR      2  -6  69 N16       30.39R WCI -18
HIBBING        CLEAR      0  -8  69 N12       30.35R WCI -17
ALEXANDRIA     CLEAR      1  -7  68 N12       30.41R WCI -16
SAINT CLOUD    PTCLDY    12  -4  48 N8        30.37R WCI   0
MINNEAPOLIS    CLOUDY    19  11  70 NW15      30.33R WCI   5
$$

  *****  WEATHER ACROSS SOUTH DAKOTA  *****

CITY           SKY/WX    TMP DP  RH WIND       PRES   REMARKS
SIOUX FALLS    CLOUDY    12   4  70 N14       30.41R WCI  -3
BROOKINGS      NOT AVBL
WATERTOWN      PTCLDY    -1  -7  75 N9        30.41R WCI -16
HURON          MOCLDY     6   0  76 N7        30.48R WCI  -6
SISSETON         N/A     -5 -10  79 N8        30.49R WCI -20
ABERDEEN       CLEAR     -2  -8  76 N7        30.50R WCI -15
MITCHELL       CLOUDY    11   4  73 N12       30.47R WCI  -3
PIERRE         CLOUDY    15  10  80 NE9       30.41R WCI   3
MOBRIDGE       PTCLDY     4  -1  80 E12       30.41S WCI -12
RAPID CITY     LGT SNOW  28  25  88 E3        30.27F FOG
$$

  *****  SOME WEATHER IN NEARBY STATES *****

CITY           SKY/WX    TMP DP  RH WIND       PRES   REMARKS
GLASGOW MT     CLOUDY    17  10  74 E18       30.26F WCI   1
GREAT FALLS MT FOG       23  22  96 CALM      30.03F VSB 1/4
CHEYENNE WY    CLEAR     24  21  88 SW10      30.20S WCI  14
SCOTTSBLUFF NE FOG       18  17  96 SE8       30.26F VSB 1/4 WCI   8
OMAHA NE       CLOUDY    24  18  77 N12       30.42R WCI  13
DES MOINES IA  LGT SNOW  25  21  85 NW16      30.31R FOG     WCI  12
DAVENPORT IA   CLOUDY    25  19  78 N7        30.22R WCI  17
CHICAGO IL     CLOUDY    28  23  81 NW10      30.16R WCI  19
EAU CLAIRE WI  CLOUDY    22  14  71 N7        30.25R WCI  13
LA CROSSE WI   MOCLDY    22  19  89 NW3       30.25S
$$

  *****  SOME NATIONAL WEATHER *****

CITY           SKY/WX    TMP DP  RH WIND       PRES   REMARKS
LA GUARDIA NY  LGT SNOW  35  33  92 NW18G28   29.80R FOG     WCI  24
RALEIGH NC     PTCLDY    35  34  96 E3        30.04F
ATLANTA GA     MOCLDY    49  27  42 SW8       30.05F
NEW ORLEANS LA CLEAR     57  45  64 SW9       30.24R
OKLAHOMA CITY  PTCLDY    43  22  43 N9        30.38R
ALBUQUERQUE NM PTCLDY    51  23  33 NE7       30.38R
SALT LAKE CITY PTCLDY    46  30  53 SE10      30.35F
LOS ANGELES CA CLEAR     65  49  56 CALM      30.14R
BOISE ID       CLOUDY    48  38  68 S5        30.20F
SEATTLE WA     CLOUDY    56  52  86 SW3       29.93F
$$

*** WEATHER ACROSS MANITOBA...SASKATCHEWAN AND ONTARIO ***
                ***ONTARIO***

CITY           SKY/WX    TMP DP  RH WIND       PRES   REMARKS
GERALDTON      PTCLDY   -13 -18  77 NW6       30.29F WCI -27
THUNDER BAY    CLEAR      0  -8  71 N6        30.37S WCI -12
SIOUX LOOKOUT  CLEAR     -9 -13  84 N6        30.37S WCI -23
TORONTO        CLOUDY    32  23  69 NE6       30.08S
BIG TROUT LK   CLEAR    -20 -26  76 W6        30.37S WCI -36
PICKLE LAKE    NOT AVBL
DRYDEN         CLEAR     -9 -13  84 NW5       30.38R WCI -21
KENORA         CLEAR     -9 -13  84 NW7       30.42R WCI -24
$$
                *** MANITOBA***

CITY           SKY/WX    TMP DP  RH WIND       PRES   REMARKS
BRANDON        CLEAR    -13 -18  77 W6        30.48S WCI -27
DAUPHIN        CLEAR     -9 -15  77 SW9       30.50R WCI -27
ISLAND LAKE    CLEAR    -13 -18  77 W7        30.42F WCI -29
PILOT MOUND      N/A    -11 -15  84 W2          N/A
THE PAS        CLEAR    -13 -18  77 S5        30.43F WCI -25
THOMPSON       CLEAR    -17 -22  76 SW5       30.36F WCI -29
WINNIPEG       CLEAR    -15 -22  70 NW6       30.55S WCI -29
LYNN LAKE      CLEAR    -13 -17  84 SW9       30.21F WCI -31
CHURCHILL      PTCLDY    -4 -13  65 SW15G22   30.15F WCI -25
GILLAM         CLEAR    -17 -22  76 SW9       30.33F WCI -36
$$
                ***SASKATCHEWAN***

CITY           SKY/WX    TMP DP  RH WIND       PRES   REMARKS
ESTEVAN        PTCLDY   -15 -18  84 SE7       30.39S WCI -31
KINDERSLEY     MOCLDY     7   3  85 E6        30.18F WCI  -3
LLOYDMINSTER   CLOUDY    12  10  92 S10       30.14F WCI  -1
PRINCE ALBERT  PTCLDY   -15 -20  76 E2        30.32F
REGINA         PTCLDY    -6  -9  84 SE12      30.35F WCI -24



USA.gov is the U.S. government's official web portal to all federal, state and local government web resources and services.